Flag for Vietnam Weather past 2 weeks in Hanoi, Vietnam

Now
82 °F

Partly cloudy.


Feels Like: 94 °F
Forecast: 76 / 85 °F
Wind: 10 mph from East

Location: Ha Noi Airport

Current Time: Sep 17, 2014 at 7:20:54 PM

Latest Report: Sep 17, 2014 at 6:30 PM


Visibility: N/A

Pressure: 29.62 "Hg

Humidity: 94%

Dew point: 81 °F

Location of HanoiLocation

Historic Weather in Hanoi — Graph

°F

Hanoi temperature yesterday

Maximum temperature yesterday: 90 °F (at 1:00 PM)
Minimum temperature yesterday: 77 °F (at 9:30 PM)
Average temperature yesterday: 83 °F

Past Weeks' High & Low Weather Summary

 TemperatureHumidityPressure
High93 °F (Sep 5, 12:30 PM)100% (Sep 3, 12:00 AM)29.89 "Hg (Sep 3, 12:00 AM)
Low75 °F (Sep 9, 8:30 AM)53% (Sep 6, 3:00 PM)29.12 "Hg (Sep 17, 12:30 AM)
Average85 °F85%29.67 "Hg
* Reported Sep 2 6:00 PM — Sep 17 6:00 PM, Hanoi, Weather by CustomWeather, © 2014

Note: Actual official high and low records may vary slightly from our data, if they occured in-between our weather recording intervals... More about our weather records

Advertising

Hanoi weather history for previous 24 hours

 ConditionsComfort  
Time TempWeatherWind HumidityBarometerVisibility
6:00 PM
Sep 17
84 °FLight rain. Partly cloudy.15 mph89%29.62 "HgN/A
5:30 PM84 °FBroken clouds.13 mph89%29.59 "HgN/A
5:00 PM84 °FBroken clouds.14 mph89%29.59 "HgN/A
4:30 PM84 °FBroken clouds.16 mph89%29.56 "HgN/A
4:00 PM86 °FBroken clouds.17 mph84%29.56 "HgN/A
3:30 PM86 °FBroken clouds.18 mph84%29.53 "HgN/A
3:00 PM86 °FBroken clouds.20 mph84%29.53 "HgN/A
2:30 PM88 °FBroken clouds.18 mph79%29.53 "HgN/A
2:00 PM88 °FBroken clouds.16 mph84%29.53 "HgN/A
1:30 PM86 °FBroken clouds.14 mph84%29.53 "HgN/A
1:00 PM86 °FBroken clouds.17 mph84%29.53 "HgN/A
12:30 PM84 °FBroken clouds.18 mph89%29.53 "HgN/A
12:00 PM84 °FBroken clouds.18 mph89%29.50 "HgN/A
11:30 AM84 °FLight rain. Broken clouds.20 mph89%29.53 "HgN/A
11:00 AM84 °FBroken clouds.15 mph89%29.50 "HgN/A
10:30 AM82 °FLight rain. Broken clouds.13 mph94%29.50 "HgN/A
10:00 AM81 °FLight rain. Broken clouds.13 mph100%29.50 "HgN/A
9:30 AM79 °FLight rain. Broken clouds.14 mph100%29.50 "HgN/A
9:00 AM79 °FLight rain. Broken clouds.16 mph100%29.47 "HgN/A
8:30 AM79 °FLight rain. Broken clouds.14 mph94%29.47 "HgN/A
6:00 AM77 °FRain. Broken clouds.16 mph100%29.33 "Hg4 mi
3:30 AM77 °FLight rain. Partly cloudy.17 mph100%29.21 "HgN/A
3:00 AM77 °FRain. Partly cloudy.17 mph100%29.18 "Hg6 mi
2:30 AM77 °FRain. Partly cloudy.22 mph100%29.15 "Hg4 mi
2:00 AM77 °FHeavy rain. Partly cloudy.28 mph100%29.12 "Hg2 mi
1:30 AM77 °FHeavy rain. Partly cloudy.24 mph100%29.12 "Hg2 mi
1:00 AM77 °FHeavy rain. Partly cloudy.29 mph100%29.12 "Hg1 mi
12:30 AM77 °FHeavy rain. Partly cloudy.30 mph100%29.12 "Hg1 mi
12:00 AM77 °FHeavy rain. Partly cloudy.26 mph100%29.15 "Hg2 mi
11:30 PM
Sep 16
79 °FRain. Partly cloudy.26 mph100%29.15 "Hg3 mi
11:00 PM77 °FHeavy rain. Partly cloudy.28 mph100%29.15 "Hg1 mi
10:30 PM79 °FRain. Partly cloudy.29 mph94%29.18 "Hg3 mi
10:00 PM77 °FRain. Partly cloudy.24 mph100%29.21 "Hg3 mi
9:30 PM77 °FHeavy rain. Partly cloudy.17 mph100%29.21 "Hg2 mi
9:00 PM79 °FLight rain. Partly cloudy.17 mph94%29.24 "Hg6 mi
8:30 PM79 °FLight rain. Partly cloudy.13 mph94%29.24 "Hg6 mi
8:00 PM81 °FLight rain. Partly cloudy.12 mph94%29.24 "Hg6 mi
7:00 PM81 °FLight rain. Partly cloudy.9 mph94%29.24 "Hg6 mi
Weather by CustomWeather, © 2014

See weather overviewHow to use our weather pages